Back to catalog

STARLINK-33896

AliveCommunicationsVLEO
NORAD 63861·PAYLOAD·🇺🇸 United States

Launched May 7, 2025 from Cape Canaveral Space Force Station

Loading…

Next Passes (next 24 hours)

TLE

FreshSource: CelesTrak SupGP

Epoch: Sep 14, 2026, 20:41 UTC

1 63861C 25093AB  26257.86229167  .00005202  00000+0  18847-3 0  2572
2 63861  43.0014  89.6793 0001569 276.8016  23.6954 15.27568497    15

Track STARLINK-33896 in real time with AllMySat

Download on the App Store